EHI
0 0 0 0 0 0 0 1 2 3 2 1 0 0 0 0 0 0 0 0 0 0 0 0 0 0 0 0 0 0 0 0 0 0 0 0 0 0 0 0 0 0 0
0 0 0 0 0 0 0 1 5 9 8 3 1 0 0 0 0 0 0 0 0 0 0 0 0 0 0 0 0 0 0 0 0 0 0 0 0 0 0 0 0 0 0
0 0 0 0 0 0 0 3 10 15 11 6 1 0 0 0 0 0 0 0 0 0 0 0 0 0 0 0 0 0 0 0 0 0 0 0 0 0 0 0 0 0 0
0 0 0 0 0 0 0 5 13 15 9 4 1 0 0 0 0 0 0 0 0 0 0 0 0 0 0 0 0 0 0 0 0 0 0 0 0 0 0 0 0 0 0
0 0 0 0 0 0 0 4 10 11 5 1 0 0 0 0 0 0 0 0 0 0 0 0 0 0 0 0 0 0 0 0 0 0 0 0 0 0 0 0 0 0 0
0 0 0 0 0 0 0 2 4 5 2 0 0 0 0 0 0 0 0 0 0 0 0 0 0 0 0 0 0 0 0 0 0 0 0 0 3 6 3 0 0 0 0
0 0 0 0 0 0 0 0 1 1 0 0 0 0 0 0 0 0 0 0 0 0 0 0 0 0 0 0 0 0 0 0 0 0 0 0 6 12 6 0 0 0 0
0 0 0 0 0 0 0 0 0 0 0 0 0 0 0 0 0 0 0 0 0 0 0 0 0 0 0 0 0 0 0 0 0 0 0 2 8 11 5 0 0 0 0
0 0 0 0 0 0 0 0 0 0 0 0 0 0 0 0 0 0 0 0 0 0 0 0 0 0 0 0 0 0 0 0 0 0 0 6 12 7 1 0 0 0 0
0 0 0 0 0 0 0 0 0 0 0 0 0 0 0 0 0 0 0 0 0 0 0 0 0 0 0 0 0 0 0 0 0 0 0 6 12 6 0 0 0 0 0
1 0 0 0 0 0 0 0 0 0 0 0 0 0 0 0 0 1 2 1 0 0 0 0 0 0 0 0 0 0 0 0 0 0 1 6 8 4 0 0 0 0 0
6 2 0 0 0 0 0 0 0 0 0 0 0 0 0 0 0 2 3 2 0 0 0 0 0 0 0 0 0 0 0 0 0 0 3 7 5 1 0 0 0 0 0
10 4 0 0 0 0 0 0 0 0 0 0 0 0 0 0 0 1 2 1 0 0 0 0 0 0 0 0 0 0 0 0 0 0 3 5 3 0 0 0 0 0 0
8 5 1 0 0 1 2 1 0 0 1 0 0 0 0 0 0 0 0 0 0 0 0 0 0 0 0 0 0 0 0 0 0 0 2 2 1 0 0 0 0 0 0
5 2 0 0 1 3 4 4 3 2 1 0 0 0 0 0 0 0 0 0 0 0 0 0 0 0 0 0 0 0 0 0 0 0 1 2 1 0 0 0 0 0 0
2 1 0 0 1 3 4 5 5 3 1 0 0 2 3 2 1 1 0 0 0 0 0 0 0 0 0 0 0 0 0 0 0 0 1 2 1 0 0 0 0 0 0
19 19 13 5 1 1 1 2 3 2 0 1 2 5 6 4 3 3 2 0 1 1 0 0 0 0 0 0 0 1 1 1 0 0 0 1 1 0 0 0 0 0 0
58 58 48 29 16 9 6 5 2 0 0 2 5 9 7 4 4 8 7 5 5 5 4 1 0 0 0 0 0 1 2 3 2 0 0 0 0 0 1 1 1 0 0
78 81 79 66 48 34 28 27 22 13 7 5 8 15 16 13 11 15 16 12 10 13 14 8 3 1 0 0 0 1 2 3 3 1 0 0 0 0 2 4 4 2 0
55 65 75 76 70 63 59 62 61 48 34 20 15 22 28 27 24 24 24 17 14 21 23 14 5 3 1 0 0 0 0 1 1 0 0 0 0 0 1 4 7 4 2
25 34 46 53 59 66 72 79 82 75 61 41 27 29 32 32 30 28 26 20 17 23 22 12 4 2 1 0 0 0 0 0 0 0 0 0 0 0 0 2 8 10 9
11 13 19 25 31 40 52 61 66 67 62 49 39 34 31 27 25 24 24 19 16 19 16 7 1 1 0 0 0 0 0 0 0 0 0 0 0 0 0 0 7 14 13
4 4 5 9 14 18 24 29 35 45 48 42 37 33 27 20 16 15 15 12 10 11 10 3 0 0 0 0 0 0 0 0 0 0 0 0 0 0 0 0 4 7 7
0 0 2 6 12 15 14 13 18 28 32 29 26 25 21 14 8 6 5 4 4 4 3 1 0 0 0 0 0 0 0 0 0 0 0 0 0 0 0 0 0 1 1
0 0 1 4 9 13 12 10 12 16 16 14 15 19 16 8 3 1 0 0 0 0 0 0 0 0 0 0 0 0 0 0 0 0 0 0 0 0 0 0 0 0 0
0 0 1 2 4 7 8 8 9 9 7 6 10 16 13 5 1 1 0 0 0 0 0 0 0 0 0 0 0 0 0 0 0 0 0 0 0 0 0 0 0 0 0
Wind_Speed
13 18 19 15 13 11 12 14 15 15 15 14 13 13 12 11 10 9 9 9 9 10 10 9 9 9 9 9 9 9 9 9 9 9 9 8 8 8 8 8 7 10 10
16 19 20 17 15 13 13 14 15 15 15 15 14 14 12 11 9 9 8 8 8 8 8 8 8 8 8 8 8 8 7 6 7 7 7 8 7 6 6 4 3 9 9
17 19 19 16 15 14 13 14 15 15 15 14 14 13 13 12 10 9 9 8 7 7 6 7 7 7 7 7 6 6 6 5 4 4 5 7 9 6 5 4 5 8 8
17 18 18 18 15 15 14 13 14 15 14 13 12 12 11 11 11 10 9 8 7 7 6 5 5 5 5 5 5 5 4 4 3 5 7 3 6 9 6 6 6 6 6
15 15 17 18 16 15 14 13 13 14 13 12 11 11 11 11 10 10 9 7 7 6 6 5 4 4 4 3 5 5 5 4 5 10 5 4 3 8 6 7 7 7 6
15 14 18 18 17 16 14 14 13 12 12 11 10 9 9 9 9 9 9 8 7 6 5 5 5 4 3 2 3 4 5 6 9 11 5 6 6 10 7 8 8 8 8
15 14 18 18 17 16 14 14 13 13 12 11 10 10 9 8 8 8 8 8 7 6 5 5 6 5 4 4 3 4 5 6 10 7 6 7 5 8 6 8 9 10 11
15 14 17 18 16 15 15 14 14 13 12 11 11 10 9 8 7 7 7 7 7 7 7 6 5 5 4 5 5 6 6 9 10 9 8 8 5 5 7 9 9 12 14
15 14 15 17 16 16 15 15 15 14 13 12 11 11 10 9 9 9 8 7 7 7 7 7 7 6 6 6 7 8 9 9 12 9 8 7 8 7 9 11 10 10 13
14 14 14 15 15 15 16 16 14 14 13 12 11 10 10 9 9 9 10 10 9 8 8 9 9 8 8 9 9 10 10 10 13 11 7 6 11 9 10 12 12 11 12
12 12 13 13 13 13 13 14 14 13 12 11 11 11 10 10 11 11 11 8 8 9 9 10 10 10 10 12 13 12 11 10 11 8 7 4 9 10 12 13 13 12 11
13 13 10 10 10 10 9 9 10 11 11 11 9 10 9 8 7 7 7 7 9 10 11 12 11 12 13 10 11 13 9 11 10 7 6 7 9 12 14 15 15 14 14
13 12 11 8 8 9 7 6 6 5 5 8 10 9 8 7 6 7 5 8 10 11 10 10 12 10 9 6 5 6 8 8 7 6 5 9 10 13 15 13 14 15 15
12 12 10 10 9 9 8 6 6 5 4 6 8 10 8 6 6 6 5 6 6 5 6 7 6 8 8 9 8 8 8 6 7 5 2 8 11 12 14 13 12 14 14
11 11 10 8 9 8 7 6 7 7 7 8 7 8 9 7 8 7 6 6 8 6 7 7 8 7 7 9 9 8 8 7 8 7 5 9 12 13 13 13 13 14 14
11 12 11 10 9 8 7 7 7 8 7 9 8 10 10 9 8 8 8 8 8 8 7 6 7 7 7 7 9 9 9 9 7 8 9 6 12 13 13 12 13 13 14
10 10 10 9 10 10 11 10 9 10 10 9 9 10 11 12 10 9 9 9 9 8 8 8 9 8 8 8 9 9 8 8 8 8 9 8 8 13 16 14 14 14 14
8 9 9 8 9 11 11 10 9 10 9 8 8 9 11 13 12 10 10 10 9 8 8 7 8 8 7 7 7 7 7 7 9 9 9 9 8 8 11 16 15 14 14
6 6 7 8 8 8 9 9 10 9 9 8 8 8 8 11 13 11 11 10 9 9 8 8 8 7 7 7 8 8 8 8 9 11 10 11 10 9 9 10 15 14 15
7 6 6 6 6 7 7 7 7 8 7 7 7 6 8 7 11 11 11 13 12 9 7 7 8 7 7 8 9 9 9 11 11 11 12 11 11 13 13 11 9 12 16
6 7 7 7 6 6 6 7 7 7 6 6 7 8 8 8 9 10 11 11 10 9 8 8 7 9 9 7 9 10 10 12 13 10 10 11 12 13 13 12 10 10 8
7 7 8 8 7 7 6 5 5 6 6 6 7 9 10 10 10 10 11 9 9 8 8 7 7 8 9 7 8 9 9 9 8 9 9 9 11 10 12 13 12 10 9
7 9 8 9 8 8 8 6 5 6 6 7 9 10 12 11 11 8 7 6 6 7 6 7 7 8 7 6 5 6 7 8 7 6 7 8 9 8 9 9 11 10 11
8 8 9 9 9 8 9 9 10 9 9 9 9 9 8 7 8 8 7 5 5 5 6 7 6 5 6 6 4 5 7 6 6 7 8 7 7 8 8 6 7 8 10
11 11 10 10 11 10 9 10 11 11 11 9 10 10 7 5 5 6 7 7 5 5 5 6 5 6 4 5 4 4 5 6 8 7 9 8 6 6 6 6 6 6 7
12 12 12 12 12 11 11 11 12 14 14 13 12 9 7 5 5 7 7 7 7 5 6 7 6 6 4 4 4 4 5 5 5 6 8 8 6 6 6 5 5 5 5
Wind_Direction
158 142 150 162 163 155 138 130 132 138 143 146 146 144 146 146 144 137 132 124 116 110 108 107 105 105 106 105 103 102 103 105 106 106 109 110 110 113 120 136 160 117 113
148 143 153 163 164 159 146 135 133 136 141 144 144 144 146 148 146 140 137 132 126 118 114 112 109 108 110 111 112 111 110 109 111 115 130 136 124 121 129 138 10 104 133
148 145 156 163 165 161 152 145 139 139 142 145 146 149 151 152 152 150 147 143 136 128 121 119 118 117 118 120 122 121 121 122 123 133 217 178 133 137 146 144 114 131 144
152 150 159 160 167 164 158 154 147 144 145 148 150 154 157 157 156 154 151 148 144 138 131 125 126 129 131 137 140 140 144 153 164 210 224 162 149 133 164 167 167 167 162
153 152 149 161 168 168 164 162 157 152 152 153 156 161 166 168 164 158 152 152 153 152 149 144 138 139 146 158 165 165 176 191 210 242 228 207 192 136 183 189 187 192 192
156 159 150 168 170 171 170 167 164 158 158 161 165 170 172 169 168 167 162 162 167 171 172 173 164 164 174 170 173 188 204 217 233 237 224 226 214 149 192 211 210 208 206
162 164 156 172 173 173 174 173 172 169 169 171 175 178 177 174 173 173 175 174 178 186 184 172 178 177 188 197 207 221 233 238 254 261 247 239 235 142 202 230 238 228 215
164 169 157 170 177 178 180 182 182 180 180 180 181 184 184 184 186 188 192 197 195 191 188 186 189 196 211 221 223 227 236 253 248 241 234 240 173 160 229 245 262 249 224
168 169 163 172 180 185 188 190 190 188 188 189 191 191 191 193 200 200 201 212 215 211 206 202 203 213 230 236 235 235 237 245 268 259 246 237 158 188 238 253 267 261 236
174 173 172 176 178 186 189 194 196 195 196 198 201 202 201 203 212 211 212 207 222 230 228 224 222 225 235 241 238 238 240 243 248 253 240 215 159 202 238 252 260 261 247
182 181 181 179 180 191 193 181 194 200 203 207 209 211 216 222 213 201 219 183 217 235 238 239 239 238 242 236 233 235 238 247 246 251 253 165 169 215 238 248 253 254 254
185 185 184 192 180 196 198 179 200 206 199 213 219 211 218 233 245 243 140 188 231 239 240 239 244 247 242 241 218 215 240 242 260 251 236 168 202 233 242 246 246 246 248
186 188 182 196 185 203 207 207 212 216 214 220 227 224 232 242 234 236 225 201 215 225 236 222 227 238 244 244 260 242 255 265 254 251 231 179 221 242 246 244 243 243 244
190 189 191 187 196 208 223 222 229 223 215 225 218 228 229 229 247 250 247 253 241 231 239 255 250 253 262 268 258 260 259 258 273 285 260 192 227 242 247 244 239 240 239
193 195 198 202 206 209 219 240 237 236 231 223 231 223 239 241 240 241 242 248 256 249 236 235 250 260 268 266 262 260 271 268 267 270 264 218 228 237 241 243 239 238 237
197 201 200 206 215 223 225 231 244 250 239 251 235 233 227 239 243 247 241 236 244 249 254 262 261 261 258 261 268 272 273 274 266 263 267 249 223 228 233 238 241 239 236
196 198 202 209 217 223 227 230 234 243 244 242 244 239 236 241 238 240 246 241 239 241 241 246 253 255 256 252 252 258 262 266 268 264 268 271 251 219 217 227 234 234 233
197 194 202 213 218 222 227 231 237 243 250 251 253 251 245 252 253 248 249 246 242 243 243 242 252 258 259 264 271 277 276 270 261 259 256 250 257 260 222 211 222 228 229
199 203 207 215 227 229 231 234 245 251 254 256 254 258 266 266 264 260 262 261 255 251 253 257 252 261 269 270 270 265 266 262 264 261 260 262 260 254 256 211 207 222 227
183 187 193 197 206 218 228 234 240 245 245 245 249 258 273 277 278 273 265 261 259 256 254 258 268 263 267 268 277 281 271 267 262 261 260 258 254 253 252 250 226 216 214
211 211 213 218 204 204 207 215 222 225 227 233 232 234 245 258 268 270 267 265 260 260 257 256 260 262 261 270 278 279 273 265 260 259 259 265 263 259 257 253 243 242 212
267 264 261 253 252 243 230 217 214 212 218 229 244 246 244 247 250 252 250 251 255 253 248 248 251 274 282 279 282 290 286 275 251 247 249 250 258 263 256 243 234 230 239
289 285 284 282 273 265 259 250 236 225 224 220 232 241 243 243 247 234 221 221 237 247 247 251 257 260 274 272 262 270 288 298 322 278 259 258 260 264 261 255 237 228 232
318 306 297 288 278 267 257 253 250 246 246 242 238 238 236 230 225 207 191 190 218 246 249 249 246 256 258 266 257 248 256 275 278 288 273 256 246 253 259 259 252 236 232
324 320 312 304 299 293 281 269 264 261 260 255 242 233 217 197 198 193 176 175 191 226 241 244 232 245 251 267 270 266 265 261 253 258 277 284 279 264 247 237 242 249 248
318 313 309 306 299 292 281 269 258 256 253 244 229 215 198 188 188 192 182 177 188 207 217 225 231 232 250 270 275 267 262 260 261 257 270 283 286 273 260 250 248 249 256